• Join FlightAware (Why Join?)
  • Login
  • US Flag 
06:30PM EDT


 

Airport Tracker/Info


-or-


 

Live Flight TrackerFlight Track Log ✈ CJC5009 ✈ 26-Apr-2012 ✈ KIAH - KBPT

Flight Track Log - Related Links

Times and Time Zones

All times are in EDT time to prevent confusion due to time zone crossing. See the CJC5009 flight status page for this flight to view local times or setup timezone preferences in your user account.

Time Position Orientation Groundspeed Altitude Reporting Facility
EDT Latitude Longitude Course Direction KTS MPH feet Rate Location/Type
11:12PM 29.9644 -95.3483 45° Northeast 130 150 800  Level Houston Center
11:14PM 30.0053 -95.3017 16° North 223 257 2,400 900 Climbing Houston Center
11:15PM 30.0642 -95.2822 36° Northeast 226 260 3,000 780 Climbing Houston Center
11:16PM 30.1133 -95.2408 66° East 242 278 3,900 1,020 Climbing Houston Center
11:17PM 30.1358 -95.1817 78° East 191 220 5,000 540 Climbing Houston Center
11:18PM 30.1478 -95.1147 77° East 217 250 5,000  Level Houston Center
11:19PM 30.1644 -95.0336 86° East 246 283 5,000  Level Houston Center
11:20PM 30.1683 -94.9689 87° East 252 290 5,000  Level Houston Center
11:21PM 30.1725 -94.8778 87° East 250 288 5,000  Level Houston Center
11:22PM 30.1767 -94.7892 93° East 254 292 5,000  Level Houston Center
11:23PM 30.1722 -94.7025 97° East 249 287 5,000  Level Houston Center
11:24PM 30.1636 -94.6206 87° East 259 298 5,000 -300 Level Houston Center
11:25PM 30.1675 -94.5389 85° East 261 300 4,500 -540 Descending Houston Center
11:26PM 30.1733 -94.4622 115° Southeast 263 303 4,000 -540 Descending Houston Center
11:27PM 30.1436 -94.3894 124° Southeast 245 282 3,500 -600 Descending Houston Center
11:28PM 30.1053 -94.3236 123° Southeast 248 285 2,900 -600 Descending Houston Center
11:29PM 30.0728 -94.2650 119° Southeast 207 238 2,400 -480 Descending Houston Center
11:30PM 30.0447 -94.2069 119° Southeast 209 241 2,000 -240 Descending Houston Center
11:31PM 30.0186 -94.1533 122° Southeast 209 241 2,000 -300 Level Houston Center
11:32PM 29.9925 -94.1047 125° Southeast 162 186 1,500 -660 Descending Houston Center
11:33PM 29.9722 -94.0708 119° Southeast 129 148 700 -720 Descending Houston Center
11:34PM 29.9539 -94.0319 119° Southeast 114 131 100 -600 Descending Houston Center